Hourly Data Report for July 25, 2003

TORONTO CITY
ONTARIO

43°40'00.000" N
79°24'00.000" W
112.50 m
6158355
71508
XTO

Download Data

Hourly Data (July 2003)
Hourly Data Report for July 25, 2003
TIME
LST
Temp Definition
°C
Dew Point Definition
°C
Rel Hum Definition
%
Precip. Amount Definition
mm

Wind Dir Definition
10's deg

Wind Spd Definition
km/h
Visibility Definition
km
Stn Press Definition
kPa
Hmdx Definition


Wind Chill Definition


Weather Definition


00:00 18.7 14.5 77   LegendMM LegendMM LegendMM 100.45     LegendNANA
01:00 17.6 14.2 80   LegendMM LegendMM LegendMM 100.50     LegendNANA
02:00 16.9 13.4 80   LegendMM LegendMM LegendMM 100.52     LegendNANA
03:00 15.9 13.4 85   LegendMM LegendMM LegendMM 100.55     LegendNANA
04:00 16.1 13.6 85   LegendMM LegendMM LegendMM 100.59     LegendNANA
05:00 15.5 13.1 86   LegendMM LegendMM LegendMM 100.62     LegendNANA
06:00 15.7 13.6 87   LegendMM LegendMM LegendMM 100.69     LegendNANA
07:00 18.9 13.7 72   LegendMM LegendMM LegendMM 100.72     LegendNANA
08:00 21.7 14.7 64   LegendMM LegendMM LegendMM 100.74 25   LegendNANA
09:00 21.8 13.3 58   LegendMM LegendMM LegendMM 100.79 25   LegendNANA
10:00 23.4 14.9 59   LegendMM LegendMM LegendMM 100.82 27   LegendNANA
11:00 25.0 17.3 62   LegendMM LegendMM LegendMM 100.79 30   LegendNANA
12:00 26.0 19.1 66   LegendMM LegendMM LegendMM 100.77 33   LegendNANA
13:00 27.8 18.9 58   LegendMM LegendMM LegendMM 100.74 34   LegendNANA
14:00 27.1 16.4 52   LegendMM LegendMM LegendMM 100.69 32   LegendNANA
15:00 26.9 16.4 53   LegendMM LegendMM LegendMM 100.66 32   LegendNANA
16:00 25.7 16.2 56   LegendMM LegendMM LegendMM 100.60 30   LegendNANA
17:00 25.5 15.8 55   LegendMM LegendMM LegendMM 100.57 30   LegendNANA
18:00 25.1 13.5 49   LegendMM LegendMM LegendMM 100.56 28   LegendNANA
19:00 23.5 13.7 54   LegendMM LegendMM LegendMM 100.58 27   LegendNANA
20:00 23.0 12.7 52   LegendMM LegendMM LegendMM 100.62 26   LegendNANA
21:00 21.9 13.4 58   LegendMM LegendMM LegendMM 100.68 25   LegendNANA
22:00 21.0 15.5 71   LegendMM LegendMM LegendMM 100.69 25   LegendNANA
23:00 20.0 16.0 78   LegendMM LegendMM LegendMM 100.70 25   LegendNANA

Notes on Data Quality.

Legend

  • E = Estimated
  • M = Missing
  • NA = Not Available*
  • [empty] = Indicates an unobserved value
Date modified: